Salalah Airport

Jump to: basic info | weather | frequencies | runways | comments

Related pages: nearby airports | nearby navaids | notams | map

Basic information (top)

Codes: SLL OOSA
Location: lon 17.038700, lat 54.091301, elev 73 ft / 22 m msl
Status: medium_airport
Scheduled airline service: yes
Links: Wikipedia Mobile

Weather (top)

Current conditions (rec'd 2014/07/23 23:50Z):

OOSA 232350Z AUTO 10004KT 2500 24/23 Q1002

Airport forecast (rec'd 2014/07/23 00:50Z):

TAF OOSA 232325Z 2400/2506 VRB03KT 1500 DZ SCT003 BKN008 OVC018 
      TEMPO 2402/2404 1000 
      BECMG 2405/2407 15006KT 3000 -DZ/HZ SCT006 BKN010 OVC020 
      TEMPO 2411/2414 1500 DZ SCT003 BKN008 OVC018 
      BECMG 2415/2417 VRB03KT 
      BECMG 2423/2501 1500 DZ SCT003 BKN008 OVC018

Frequencies (top)

Verify before use: may be inaccurate or out of date.

APP: 119.1 MHz (APP)
RDR: 119.1 MHz (RDR)
TWR: 118.2 MHz (TWR)

Runways (top)

07/25: 10,965 x 148 ft (3,342 x 45 m) — paved — lighted

17/35 [CLOSED]: 4,196 x 59 ft (1,279 x 18 m) — grass — not lighted

Latest comments (top)

No comments yet for Salalah Airport

More... (top)

See also NOTAMs and nearby airports and navaids, or visit the Salalah Airport page at the main OurAirports website..